Flag for U.S.A. Weather past 2 weeks in Provincetown, Massachusetts, U.S.A.

45 °F

Low clouds.

Feels Like: 38 °F
Forecast: 40 / 44 °F
Wind: 13 mph from Northeast

Location: Provincetown Weather Reporting Station

Current Time: Nov 28, 2015 at 7:07:40 PM

Latest Report: Nov 28, 2015 at 6:15 PM

Visibility: 9 mi

Pressure: 30.42 "Hg

Humidity: 93%

Dew point: 43 °F

Location of ProvincetownLocation

Historic Weather in Provincetown — Graph


Provincetown temperature yesterday

Maximum temperature yesterday: 61 °F (at 12:15 PM)
Minimum temperature yesterday: 48 °F (at 5:15 AM)
Average temperature yesterday: 54 °F

Past Weeks' High & Low Weather Summary

High61 °F (Nov 27, 12:15 PM)100% (Nov 20, 6:15 AM)30.89 "Hg (Nov 20, 6:15 AM)
Low21 °F (Nov 18, 5:56 AM)39% (Nov 23, 2:35 PM)29.58 "Hg (Nov 13, 5:56 PM)
Average46 °F70%30.37 "Hg
* Reported Nov 13 5:35 PM — Nov 28 5:56 PM, Provincetown, Weather by CustomWeather, © 2015

Note: Actual official high and low records may vary slightly from our data, if they occured in-between our weather recording intervals... More about our weather records


Provincetown weather history for previous 24 hours

Time TempWeatherWind HumidityBarometerVisibility
5:56 PM
Sat, Nov 28
45 °FLow clouds.12 mph90%30.16 "Hg9 mi
4:56 PM46 °FLight rain. Overcast.13 mph89%30.15 "Hg10 mi
4:35 PM46 °FOvercast.12 mph87%30.42 "Hg10 mi
3:35 PM46 °FLow clouds.9 mph93%30.42 "Hg10 mi
3:15 PM46 °FLow clouds.14 mph93%30.42 "Hg10 mi
2:56 PM46 °FLight rain. Low clouds.15 mph93%30.13 "Hg10 mi
2:35 PM46 °FLow clouds.14 mph93%30.42 "Hg8 mi
2:15 PM46 °FLow clouds.14 mph93%30.42 "Hg7 mi
1:56 PM47 °FLight rain. Fog.13 mph93%30.13 "Hg6 mi
1:35 PM46 °FLow clouds.14 mph93%30.42 "Hg10 mi
1:15 PM48 °FLow clouds.16 mph94%30.42 "Hg10 mi
12:56 PM48 °FLow clouds.15 mph93%30.12 "Hg10 mi
12:35 PM48 °FLow clouds.14 mph94%30.42 "Hg10 mi
12:15 PM48 °FLow clouds.13 mph94%30.42 "Hg10 mi
11:56 AM49 °FLight rain. Low clouds.15 mph97%30.11 "Hg9 mi
11:35 AM50 °FLow clouds.13 mph94%30.42 "Hg10 mi
11:15 AM50 °FLow clouds.14 mph94%30.42 "Hg9 mi
10:56 AM51 °FMostly cloudy.14 mph96%30.13 "Hg10 mi
10:35 AM52 °FPartly sunny.10 mph94%30.42 "Hg10 mi
10:15 AM52 °FMostly cloudy.9 mph94%30.42 "Hg9 mi
9:56 AM52 °FLight rain. Mostly cloudy.6 mph93%30.15 "Hg10 mi
9:35 AM54 °FMore clouds than sun.7 mph82%30.42 "Hg10 mi
9:15 AM54 °FMostly cloudy.3 mph88%30.42 "Hg10 mi
8:56 AM53 °FOvercast.3 mph89%30.15 "Hg10 mi
8:35 AM54 °FOvercast.5 mph88%30.42 "Hg10 mi
8:15 AM54 °FOvercast.6 mph82%30.42 "Hg10 mi
7:56 AM53 °FMostly cloudy.6 mph86%30.14 "Hg10 mi
7:35 AM54 °FMostly cloudy.6 mph82%30.42 "Hg10 mi
7:15 AM54 °FMostly cloudy.5 mph82%30.42 "Hg10 mi
6:56 AM53 °FMostly cloudy.6 mph86%30.13 "Hg10 mi
6:35 AM54 °FPassing clouds.7 mph82%30.42 "Hg10 mi
6:15 AM54 °FPassing clouds.7 mph82%30.42 "Hg10 mi
5:56 AM52 °FClear.8 mph93%30.12 "Hg10 mi
5:35 AM54 °FPassing clouds.7 mph82%30.42 "Hg10 mi
5:15 AM54 °FPassing clouds.8 mph82%30.42 "Hg10 mi
4:56 AM53 °FOvercast.6 mph86%30.11 "Hg10 mi
4:35 AM54 °FPassing clouds.7 mph82%30.42 "Hg10 mi
4:15 AM54 °FPassing clouds.7 mph82%30.42 "Hg10 mi
3:56 AM54 °FOvercast.8 mph83%30.12 "Hg10 mi
3:35 AM54 °FPassing clouds.10 mph88%30.42 "Hg10 mi
3:15 AM54 °FPassing clouds.7 mph88%30.42 "Hg10 mi
2:56 AM53 °FPassing clouds.8 mph89%30.13 "Hg10 mi
1:35 AM54 °FPassing clouds.12 mph94%30.42 "Hg10 mi
1:15 AM54 °FPassing clouds.14 mph94%30.42 "Hg10 mi
12:35 AM54 °FClear.14 mph94%30.42 "Hg10 mi
11:56 PM
Fri, Nov 27
54 °FClear.15 mph93%30.17 "Hg10 mi
11:35 PM54 °FClear.21 mph94%30.42 "Hg10 mi
11:15 PM55 °FClear.18 mph88%30.42 "Hg10 mi
10:56 PM55 °FClear.18 mph90%30.18 "Hg10 mi
10:15 PM55 °FClear.18 mph88%30.42 "Hg10 mi
9:56 PM54 °FClear.16 mph90%30.19 "Hg10 mi
9:35 PM54 °FClear.17 mph94%30.42 "Hg10 mi
8:56 PM54 °FClear.17 mph86%30.22 "Hg10 mi
8:35 PM54 °FClear.15 mph82%30.42 "Hg10 mi
8:15 PM54 °FClear.16 mph82%30.42 "Hg10 mi
7:56 PM54 °FClear.14 mph86%30.22 "Hg10 mi
7:35 PM54 °FClear.14 mph88%30.42 "Hg10 mi
Weather by CustomWeather, © 2015

See weather overviewHow to use our weather pages